Hebron, NE

6:02 AM CDT on October 20, 2017 (GMT -0500)
Hebron Municipal

Weather History for KHJH - September, 2013

Change the Weather History Date:

Monday, September 30, 2013

  Actual Average Record
Temperature  
Mean Temperature 65 °F -  
Max Temperature 83 °F 74 °F 95 °F (1979)
Min Temperature 47 °F 48 °F 27 °F (1984)
Growing Degree Days 15 (Base 50)    
Moisture  
Dew Point 46 °F    
Average Humidity 55    
Maximum Humidity 86    
Minimum Humidity 25    
Precipitation  
Precipitation 0.00 in - - ()
Sea Level Pressure  
Sea Level Pressure 29.82 in    
Wind  
Wind Speed 7 mph (SSW)    
Max Wind Speed 20 mph    
Max Gust Speed 25 mph    
Visibility 10 miles    
Events      
Averages and records for this station are not official NWS values.
T = Trace of Precipitation, MM = Missing Value Source: NWS Daily Summary

Daily Weather History Graph

Daily Weather History Graph

Search for Another Location

Airport or City:

Trip Planner

Search our weather history database for the weather conditions in past years. The results will help you decide how hot, cold, wet, or windy it might be!

Date:

Astronomy

Sep. 30, 2013 Rise Set
Actual Time 7:25 AM CDT 7:13 PM CDT
Civil Twilight 6:58 AM CDT 7:40 PM CDT
Nautical Twilight 6:27 AM CDT 8:12 PM CDT
Astronomical Twilight 5:55 AM CDT 8:43 PM CDT
Moon 3:04 AM CDT (9/30) 4:45 PM CDT (9/30)
Length of Visible Light 12h 41m
Length of Day
11h 47m
Waning Crescent, 19% of the Moon is Illuminated
Sep 30
Waning Crescent
Oct 4
New
Oct 11
First Quarter
Oct 18
Full
Oct 26
Last Quarter

Hourly Weather History & Observations

Time (CDT) Temp. Dew Point Humidity Pressure Visibility Wind Dir Wind Speed Gust Speed Precip Events Conditions
12:15 AM 55.4 °F 44.8 °F 67% 29.90 in 10.0 mi SSE 6.9 mph - N/A   Clear
12:35 AM 55.6 °F 44.8 °F 67% 29.90 in 10.0 mi South 5.8 mph - N/A   Clear
12:55 AM 54.7 °F 44.6 °F 69% 29.89 in 10.0 mi South 4.6 mph - N/A   Clear
1:15 AM 54.5 °F 45.0 °F 70% 29.89 in 10.0 mi South 6.9 mph - N/A   Clear
1:35 AM 54.5 °F 45.0 °F 70% 29.89 in 10.0 mi South 4.6 mph - N/A   Clear
1:55 AM 54.5 °F 45.1 °F 71% 29.88 in 10.0 mi South 6.9 mph - N/A   Clear
2:15 AM 54.0 °F 45.1 °F 72% 29.89 in 10.0 mi South 3.5 mph - N/A   Clear
2:35 AM 53.1 °F 45.0 °F 74% 29.89 in 10.0 mi SSW 3.5 mph - N/A   Clear
2:55 AM 52.7 °F 44.8 °F 74% 29.89 in 10.0 mi Calm Calm - N/A   Clear
3:15 AM 49.6 °F 44.4 °F 82% 29.88 in 10.0 mi Calm Calm - N/A   Clear
3:35 AM 48.2 °F 43.7 °F 84% 29.88 in 10.0 mi Calm Calm - N/A   Clear
3:55 AM 47.5 °F 43.3 °F 86% 29.87 in 10.0 mi Calm Calm - N/A   Clear
4:15 AM 48.6 °F 44.4 °F 86% 29.86 in 10.0 mi Calm Calm - N/A   Clear
4:35 AM 48.9 °F 43.7 °F 82% 29.87 in 10.0 mi Calm Calm - N/A   Clear
4:55 AM 48.4 °F 44.2 °F 86% 29.86 in 10.0 mi Calm Calm - N/A   Clear
5:15 AM 50.0 °F 44.8 °F 82% 29.86 in 10.0 mi Calm Calm - N/A   Clear
5:35 AM 50.2 °F 44.8 °F 82% 29.86 in 10.0 mi Calm Calm - N/A   Clear
5:55 AM 50.4 °F 45.5 °F 83% 29.85 in 10.0 mi South 4.6 mph - N/A   Clear
6:15 AM 51.8 °F 45.7 °F 80% 29.86 in 10.0 mi Calm Calm - N/A   Clear
6:35 AM 52.5 °F 46.0 °F 79% 29.86 in 10.0 mi Calm Calm - N/A   Clear
6:55 AM 52.9 °F 46.4 °F 79% 29.85 in 10.0 mi South 4.6 mph - N/A   Clear
7:15 AM 53.2 °F 46.4 °F 78% 29.85 in 10.0 mi South 5.8 mph - N/A   Clear
7:35 AM 53.6 °F 46.6 °F 77% 29.86 in 10.0 mi SW 4.6 mph - N/A   Clear
7:55 AM 53.2 °F 46.6 °F 78% 29.86 in 10.0 mi SSW 5.8 mph - N/A   Clear
8:15 AM 52.9 °F 47.1 °F 81% 29.85 in 10.0 mi SSW 3.5 mph - N/A   Clear
8:35 AM 53.6 °F 47.7 °F 80% 29.85 in 10.0 mi SSW 3.5 mph - N/A   Clear
8:55 AM 56.8 °F 49.3 °F 76% 29.85 in 10.0 mi SSW 4.6 mph - N/A   Clear
9:15 AM 59.9 °F 49.5 °F 68% 29.84 in 10.0 mi SSW 8.1 mph - N/A   Clear
9:35 AM 62.6 °F 48.9 °F 61% 29.84 in 10.0 mi SSW 13.8 mph 17.3 mph N/A   Clear
9:55 AM 63.7 °F 47.5 °F 56% 29.84 in 10.0 mi SSW 11.5 mph 23.0 mph N/A   Clear
10:15 AM 64.2 °F 47.1 °F 54% 29.84 in 10.0 mi SSW 15.0 mph 18.4 mph N/A   Clear
10:35 AM 67.6 °F 46.9 °F 47% 29.84 in 10.0 mi SSW 11.5 mph 20.7 mph N/A   Clear
10:55 AM 69.4 °F 46.0 °F 43% 29.84 in 10.0 mi SW 15.0 mph 19.6 mph N/A   Clear
11:15 AM 70.3 °F 46.2 °F 42% 29.84 in 10.0 mi SW 12.7 mph 19.6 mph N/A   Clear
11:35 AM 72.3 °F 46.0 °F 39% 29.83 in 10.0 mi SSW 12.7 mph 17.3 mph N/A   Clear
11:55 AM 73.4 °F 43.5 °F 34% 29.82 in 10.0 mi SSW 19.6 mph 25.3 mph N/A   Clear
12:15 PM 75.2 °F 43.3 °F 32% 29.82 in 10.0 mi SSW 13.8 mph 23.0 mph N/A   Clear
12:35 PM 76.1 °F 43.0 °F 31% 29.82 in 10.0 mi SSW 17.3 mph 21.9 mph N/A   Clear
12:55 PM 77.5 °F 43.5 °F 30% 29.82 in 10.0 mi SW 13.8 mph 20.7 mph N/A   Clear
1:15 PM 77.9 °F 43.0 °F 29% 29.81 in 10.0 mi SSW 16.1 mph 24.2 mph N/A   Clear
1:35 PM 79.3 °F 42.8 °F 27% 29.80 in 10.0 mi SSW 16.1 mph 20.7 mph N/A   Clear
1:55 PM 80.1 °F 43.7 °F 28% 29.80 in 10.0 mi SW 11.5 mph 21.9 mph N/A   Clear
2:15 PM 80.6 °F 43.3 °F 27% 29.79 in 10.0 mi SSW 16.1 mph - N/A   Clear
2:35 PM 81.0 °F 44.1 °F 27% 29.78 in 10.0 mi SSW 11.5 mph - N/A   Clear
2:55 PM 81.5 °F 43.7 °F 26% 29.78 in 10.0 mi SSW 11.5 mph 20.7 mph N/A   Clear
3:15 PM 82.0 °F 45.0 °F 27% 29.77 in 10.0 mi South 12.7 mph 19.6 mph N/A   Clear
3:35 PM 82.4 °F 44.2 °F 26% 29.77 in 10.0 mi SSW 11.5 mph 20.7 mph N/A   Clear
3:55 PM 83.3 °F 44.6 °F 26% 29.76 in 10.0 mi SSW 13.8 mph 20.7 mph N/A   Clear
4:15 PM 83.5 °F 45.0 °F 26% 29.76 in 10.0 mi South 16.1 mph 20.7 mph N/A   Clear
4:35 PM 83.3 °F 44.4 °F 25% 29.75 in 10.0 mi South 13.8 mph 24.2 mph N/A   Clear
4:55 PM 83.1 °F 43.9 °F 25% 29.75 in 10.0 mi SSW 16.1 mph 23.0 mph N/A   Clear
5:15 PM 81.9 °F 45.0 °F 27% 29.75 in 10.0 mi SSW 13.8 mph 19.6 mph N/A   Clear
5:35 PM 81.9 °F 45.9 °F 28% 29.75 in 10.0 mi South 13.8 mph 20.7 mph N/A   Clear
5:55 PM 81.5 °F 45.9 °F 29% 29.75 in 10.0 mi South 17.3 mph - N/A   Clear
6:15 PM 79.5 °F 46.9 °F 32% 29.75 in 10.0 mi South 10.4 mph - N/A   Clear
6:35 PM 77.4 °F 48.2 °F 36% 29.75 in 10.0 mi South 12.7 mph - N/A   Clear
6:55 PM 76.1 °F 48.2 °F 37% 29.75 in 10.0 mi South 10.4 mph - N/A   Clear
7:15 PM 73.4 °F 49.3 °F 42% 29.74 in 10.0 mi South 8.1 mph - N/A   Clear
7:35 PM 72.0 °F 50.0 °F 46% 29.74 in 10.0 mi South 8.1 mph - N/A   Clear
7:55 PM 71.6 °F 48.9 °F 45% 29.74 in 10.0 mi South 9.2 mph - N/A   Clear
8:15 PM 70.7 °F 48.7 °F 46% 29.75 in 10.0 mi South 8.1 mph - N/A   Clear
8:35 PM 69.4 °F 49.1 °F 48% 29.76 in 10.0 mi South 6.9 mph - N/A   Clear
8:55 PM 68.2 °F 49.5 °F 51% 29.76 in 10.0 mi South 5.8 mph - N/A   Clear
9:15 PM 67.1 °F 50.0 °F 54% 29.77 in 10.0 mi South 6.9 mph - N/A   Clear
9:35 PM 66.4 °F 50.4 °F 56% 29.77 in 10.0 mi South 6.9 mph - N/A   Clear
9:55 PM 66.2 °F 50.5 °F 57% 29.77 in 10.0 mi South 5.8 mph - N/A   Clear
10:15 PM 65.3 °F 50.9 °F 60% 29.78 in 10.0 mi South 4.6 mph - N/A   Clear
10:35 PM 63.5 °F 51.1 °F 64% 29.79 in 10.0 mi SSE 5.8 mph - N/A   Clear
10:55 PM 63.3 °F 51.1 °F 64% 29.80 in 10.0 mi SSE 5.8 mph - N/A   Clear
11:15 PM 63.0 °F 51.1 °F 65% 29.80 in 10.0 mi South 5.8 mph - N/A   Clear
11:35 PM 62.6 °F 51.3 °F 66% 29.79 in 10.0 mi South 6.9 mph - N/A   Clear
11:55 PM 62.1 °F 51.1 °F 67% 29.80 in 10.0 mi South 4.6 mph - N/A   Clear